GW1599 Weather Reports


Display with metric or nautical units.
time (UTC)temp
F
wind
direction
speed
MPH
gust
MPH
rain 1hr
in
rain 24hr
in
rain mn
in
humidity
%
barometer
mb
20260508101512 35 14 0.0 0.0 0.00 0.00 0.00 91 1017.6
20260508100938 35 14 0.0 0.0 0.00 0.00 0.00 91 1017.6
20260508100331 35 14 0.0 0.0 0.00 0.00 0.00 91 1017.6
20260508095748 35 14 0.0 0.0 0.00 0.00 0.00 91 1017.2
20260508095130 35 14 0.0 0.0 0.00 0.00 0.00 91 1017.2
20260508094522 35 14 0.0 0.0 0.00 0.00 0.00 91 1017.2
20260508093943 35 14 0.0 0.0 0.00 0.00 0.00 91 1017.2
20260508092722 35 14 0.0 0.0 0.00 0.00 0.00 91 1017.2
20260508092142 35 14 0.0 0.0 0.00 0.00 0.00 91 1017.6
20260508091528 36 14 0.0 0.0 0.00 0.00 0.00 91 1017.6
20260508090932 36 14 0.0 0.0 0.00 0.00 0.00 91 1017.2
20260508085139 36 14 0.0 0.0 0.00 0.00 0.00 91 1017.2
20260508084547 36 14 0.0 0.0 0.00 0.00 0.00 91 1017.2
20260508083912 36 14 0.0 0.0 0.00 0.00 0.00 91 1017.2
20260508083313 36 14 0.0 0.0 0.00 0.00 0.00 90 1017.2
20260508082735 36 14 0.0 0.0 0.00 0.00 0.00 91 1017.2
20260508082150 36 14 0.0 0.0 0.00 0.00 0.00 91 1016.9
20260508081537 36 14 0.0 0.0 0.00 0.00 0.00 91 1016.9
20260508080328 37 14 0.0 0.0 0.00 0.00 0.00 90 1016.9
20260508075731 37 14 0.0 0.0 0.00 0.00 0.00 90 1016.9
20260508075120 37 14 0.0 0.0 0.00 0.00 0.00 90 1016.9
20260508074529 37 14 0.0 0.0 0.00 0.00 0.00 90 1016.9
20260508073327 37 14 0.0 0.0 0.00 0.00 0.00 90 1016.9
20260508072732 37 14 0.0 0.0 0.00 0.00 0.00 90 1016.9
20260508072115 37 14 0.0 0.0 0.00 0.00 0.00 90 1016.9
20260508071537 37 14 0.0 0.0 0.00 0.00 0.00 90 1016.9
20260508070950 38 14 0.0 0.0 0.00 0.00 0.00 90 1016.9
20260508070338 38 14 0.0 0.0 0.00 0.00 0.00 90 1016.9
20260508065738 38 14 0.0 0.0 0.00 0.00 0.00 89 1017.2
20260508065133 38 14 0.0 0.0 0.00 0.00 0.00 89 1016.9
20260508064520 38 14 0.0 0.0 0.00 0.00 0.00 89 1016.9
20260508063925 38 14 0.0 0.0 0.00 0.00 0.00 89 1016.9
20260508063318 38 14 0.0 0.0 0.00 0.00 0.00 89 1016.9
20260508062742 38 14 0.0 0.0 0.00 0.00 0.00 89 1016.9
20260508062146 38 14 0.0 0.0 0.00 0.00 0.00 89 1016.9
20260508061530 39 14 0.0 0.0 0.00 0.00 0.00 89 1016.9
20260508060909 39 14 0.0 0.0 0.00 0.00 0.00 88 1016.9
20260508060341 39 14 0.0 0.0 0.00 0.00 0.00 88 1016.9
20260508055751 39 14 0.0 0.0 0.00 0.00 0.00 88 1016.9
20260508055141 39 14 0.0 0.0 0.00 0.00 0.00 87 1016.9
20260508054544 40 14 0.0 0.0 0.00 0.00 0.00 87 1016.9
20260508052737 40 14 0.0 0.0 0.00 0.00 0.00 86 1016.9
20260508052132 40 14 0.0 0.0 0.00 0.00 0.00 86 1016.9
20260508051526 40 14 0.0 0.0 0.00 0.00 0.00 86 1016.9
20260508050945 41 14 0.0 0.0 0.00 0.00 0.00 86 1016.9
20260508050309 41 14 0.0 0.0 0.00 0.00 0.00 86 1016.9
20260508045724 41 14 0.0 0.0 0.00 0.00 0.00 85 1016.9
20260508045127 41 14 0.0 0.0 0.00 0.00 0.00 85 1016.9
20260508044542 41 14 0.0 0.0 0.00 0.00 0.00 85 1016.9
20260508043936 42 14 0.0 0.0 0.00 0.00 0.00 84 1016.9
20260508043347 42 14 0.0 0.0 0.00 0.00 0.00 84 1016.9
20260508042723 42 14 0.0 0.0 0.00 0.00 0.00 84 1016.9
20260508042141 42 14 0.0 0.0 0.00 0.00 0.00 83 1016.9
20260508041532 42 14 0.0 0.0 0.00 0.00 0.00 83 1016.9
20260508040318 43 14 0.0 0.0 0.00 0.00 0.00 82 1016.9
20260508035120 44 14 0.0 0.0 0.00 0.00 0.00 81 1016.9
20260508034526 44 14 0.0 0.0 0.00 0.00 0.00 81 1016.9
20260508033916 44 14 0.0 0.0 0.00 0.00 0.00 79 1016.9
20260508033321 44 14 0.0 0.0 0.00 0.00 0.00 79 1016.5
20260508032734 45 14 0.0 0.0 0.00 0.00 0.00 79 1016.9
20260508032146 45 14 0.0 0.0 0.00 0.00 0.00 78 1016.5
20260508031526 45 14 0.0 0.0 0.00 0.00 0.00 77 1016.5
20260508030931 46 14 0.0 0.0 0.00 0.00 0.00 77 1016.5
20260508030311 46 14 0.0 0.0 0.00 0.00 0.00 76 1016.5
20260508025719 46 14 0.0 0.0 0.00 0.00 0.00 76 1016.5
20260508025114 46 14 0.0 0.0 0.00 0.00 0.00 75 1016.2
20260508024525 47 14 0.0 0.0 0.00 0.00 0.00 75 1016.2
20260508023946 47 14 0.0 0.0 0.00 0.00 0.00 73 1016.2
20260508023341 48 14 0.0 0.0 0.00 0.00 0.00 72 1015.9
20260508022723 48 14 0.0 0.0 0.00 0.00 0.00 71 1015.9
20260508021515 49 14 0.0 0.0 0.00 0.00 0.00 68 1015.9
20260508020945 49 14 0.0 0.0 0.00 0.00 0.00 68 1015.9
20260508020349 50 14 0.0 0.0 0.00 0.00 0.00 67 1015.5
20260508015738 50 14 0.0 0.0 0.00 0.00 0.00 67 1015.5
20260508015145 50 14 0.0 0.0 0.00 0.00 0.00 67 1015.5
20260508014517 51 14 0.0 0.0 0.00 0.00 0.00 67 1015.2
20260508012725 52 14 0.0 0.0 0.00 0.00 0.00 65 1015.2
20260508011528 53 14 0.0 0.0 0.00 0.00 0.00 63 1015.2
20260508010935 54 14 0.0 0.0 0.00 0.00 0.00 62 1014.9
20260508010349 54 14 0.0 0.0 0.00 0.00 0.00 58 1014.9
20260508005736 55 14 0.0 0.0 0.00 0.00 0.00 58 1014.9
20260508003908 56 14 0.0 0.0 0.00 0.00 0.00 52 1014.9
20260508003340 56 14 0.0 0.0 0.00 0.00 0.00 49 1014.5
20260508002734 56 14 0.0 0.0 0.00 0.00 0.00 50 1014.5
20260508002110 56 14 0.0 0.0 0.00 0.00 0.00 51 1014.5
20260508001532 56 14 0.0 0.0 0.00 0.00 0.00 53 1014.5
20260508000949 57 333 0.0 0.0 0.00 0.00 0.00 50 1014.2
20260508000335 57 333 0.0 0.0 0.00 0.00 0.00 48 1014.2
20260507235747 57 333 0.0 2.0 0.00 0.00 0.00 48 1014.2
20260507235119 58 334 1.0 2.0 0.00 0.00 0.00 47 1013.8
20260507234551 58 333 0.0 2.0 0.00 0.00 0.00 48 1013.8
20260507233938 58 341 1.0 2.0 0.00 0.00 0.00 46 1013.8
20260507233347 58 341 1.0 2.0 0.00 0.00 0.00 46 1013.8
20260507231535 59 250 1.0 2.0 0.00 0.00 0.00 46 1013.8
20260507225744 60 5 1.0 4.0 0.00 0.00 0.00 47 1013.5
20260507225120 61 29 2.0 2.0 0.00 0.00 0.00 46 1013.5
20260507224527 61 323 1.0 2.0 0.00 0.00 0.00 51 1013.5
20260507223918 62 297 1.0 2.0 0.00 0.00 0.00 47 1013.5
20260507223338 62 9 2.0 6.0 0.00 0.00 0.00 47 1013.5
20260507222719 62 96 1.0 6.0 0.00 0.00 0.00 44 1013.2
20260507221516 63 69 0.0 5.0 0.00 0.00 0.00 45 1013.2
20260507220312 63 105 1.0 7.0 0.00 0.00 0.00 46 1013.2
20260507215738 63 207 2.0 4.0 0.00 0.00 0.00 46 1013.2
20260507215144 63 191 4.0 6.0 0.00 0.00 0.00 45 1012.8
20260507213944 64 122 3.0 7.0 0.00 0.00 0.00 47 1012.8
20260507212737 65 146 1.0 6.0 0.00 0.00 0.00 43 1012.8
20260507211532 65 144 0.0 6.0 0.00 0.00 0.00 44 1012.8
20260507210928 66 117 3.0 3.0 0.00 0.00 0.00 50 1012.5
20260507210344 66 321 1.0 5.0 0.00 0.00 0.00 44 1012.5
20260507204547 66 182 1.0 4.0 0.00 0.00 0.00 46 1012.5
20260507202737 67 144 0.0 7.0 0.00 0.00 0.00 42 1012.5
20260507202152 67 150 1.0 5.0 0.00 0.00 0.00 44 1012.8
20260507201538 67 88 1.0 6.0 0.00 0.00 0.00 45 1012.8
20260507200938 67 157 1.0 4.0 0.00 0.00 0.00 45 1012.5
20260507195752 67 92 1.0 6.0 0.00 0.00 0.00 46 1012.8
20260507195151 67 192 1.0 5.0 0.00 0.00 0.00 48 1012.8
20260507194514 66 164 2.0 6.0 0.00 0.00 0.00 48 1012.8
20260507193951 65 118 2.0 4.0 0.00 0.00 0.00 53 1012.8
20260507192732 66 132 1.0 4.0 0.00 0.00 0.00 46 1013.2
20260507192146 66 186 1.0 4.0 0.00 0.00 0.00 50 1013.2
20260507191535 66 231 2.0 7.0 0.00 0.00 0.00 48 1013.2
20260507190936 65 160 6.0 8.0 0.00 0.00 0.00 48 1013.5
20260507185724 65 132 1.0 6.0 0.00 0.00 0.00 48 1013.5
20260507185150 66 159 5.0 5.0 0.00 0.00 0.00 47 1013.5
20260507184549 67 174 2.0 5.0 0.00 0.00 0.00 48 1013.5
20260507183951 66 157 2.0 6.0 0.00 0.00 0.00 50 1013.5
20260507183308 65 202 2.0 6.0 0.00 0.00 0.00 49 1013.5
20260507182714 66 55 1.0 5.0 0.00 0.00 0.00 48 1013.5
20260507182150 65 182 2.0 7.0 0.00 0.00 0.00 48 1013.5
20260507181510 65 159 5.0 6.0 0.00 0.00 0.00 49 1013.5
20260507180928 66 122 2.0 9.0 0.00 0.00 0.00 48 1013.5
20260507180324 66 167 5.0 6.0 0.00 0.00 0.00 53 1013.8
20260507174520 64 144 1.0 8.0 0.00 0.00 0.00 52 1013.8
20260507173945 63 147 3.0 5.0 0.00 0.00 0.00 51 1013.8
20260507172732 64 153 3.0 8.0 0.00 0.00 0.00 50 1014.2
20260507172129 63 167 1.0 5.0 0.00 0.00 0.00 50 1014.2
20260507170911 64 180 1.0 6.0 0.00 0.00 0.00 49 1014.2
20260507170321 64 150 5.0 10.0 0.00 0.00 0.00 50 1014.2
20260507165750 65 136 2.0 6.0 0.00 0.00 0.00 51 1014.2
20260507165135 64 144 2.0 8.0 0.00 0.00 0.00 54 1014.2
20260507163923 63 60 0.0 6.0 0.00 0.00 0.00 51 1014.5
20260507162722 62 155 3.0 7.0 0.00 0.00 0.00 55 1014.5
20260507162152 61 157 3.0 4.0 0.00 0.00 0.00 56 1014.5
20260507161555 61 183 1.0 2.0 0.00 0.00 0.00 55 1014.5
20260507160923 62 126 4.0 4.0 0.00 0.00 0.00 53 1014.9
20260507160346 62 111 1.0 3.0 0.00 0.00 0.00 57 1014.9
20260507155731 61 135 1.0 3.0 0.00 0.00 0.00 56 1014.9
20260507155123 61 135 1.0 4.0 0.00 0.00 0.00 54 1014.9
20260507154519 62 155 1.0 4.0 0.00 0.00 0.00 52 1014.9
20260507153911 64 200 2.0 3.0 0.00 0.00 0.00 53 1014.5
20260507153315 64 222 2.0 5.0 0.00 0.00 0.00 53 1014.9
20260507152750 64 157 1.0 5.0 0.00 0.00 0.00 53 1014.9
20260507151534 64 194 2.0 6.0 0.00 0.00 0.00 54 1014.5
20260507150347 64 188 1.0 3.0 0.00 0.00 0.00 55 1014.9
20260507145715 63 184 2.0 4.0 0.00 0.00 0.00 54 1014.9
20260507145111 63 223 0.0 4.0 0.00 0.00 0.00 57 1014.9
20260507144515 62 198 1.0 4.0 0.00 0.00 0.00 55 1014.9
20260507143939 62 219 1.0 4.0 0.00 0.00 0.00 59 1014.9
20260507143320 61 158 1.0 3.0 0.00 0.00 0.00 61 1014.9
20260507142123 60 211 2.0 4.0 0.00 0.00 0.00 66 1014.9
20260507141517 58 162 0.0 4.0 0.00 0.00 0.00 67 1015.2
20260507140926 58 107 0.0 0.0 0.00 0.00 0.00 67 1015.2
20260507140342 57 50 0.0 2.0 0.00 0.00 0.00 74 1015.2
20260507135143 56 163 2.0 2.0 0.00 0.00 0.00 83 1015.5
20260507134519 54 82 0.0 3.0 0.00 0.00 0.00 85 1015.9
20260507133319 53 182 1.0 2.0 0.00 0.00 0.00 90 1015.9
20260507132743 53 194 0.0 0.0 0.00 0.00 0.00 91 1015.9
20260507132122 52 165 0.0 0.0 0.00 0.00 0.00 92 1015.9
20260507130911 52 198 0.0 0.0 0.00 0.00 0.00 95 1015.9
20260507130311 51 198 0.0 0.0 0.00 0.00 0.00 95 1015.9
20260507124550 51 240 0.0 0.0 0.00 0.00 0.00 96 1015.5
20260507123943 51 240 0.0 0.0 0.00 0.00 0.00 96 1015.9
20260507123343 51 240 0.0 0.0 0.00 0.00 0.00 96 1015.9
20260507122748 50 240 0.0 0.0 0.00 0.00 0.00 96 1015.9
20260507122127 50 240 0.0 0.0 0.00 0.00 0.00 96 1015.9
20260507120340 50 240 0.0 0.0 0.00 0.00 0.00 96 1015.9
20260507115712 50 240 0.0 0.0 0.00 0.00 0.00 96 1015.9
20260507115146 50 240 0.0 0.0 0.00 0.00 0.00 96 1015.9
20260507114527 50 240 0.0 0.0 0.00 0.00 0.00 96 1015.9
20260507113916 50 250 0.0 1.0 0.00 0.00 0.00 96 1015.9
20260507113326 50 250 0.0 0.0 0.00 0.00 0.00 96 1015.9
20260507112752 50 10 0.0 0.0 0.00 0.00 0.00 96 1015.5
20260507111513 50 10 0.0 0.0 0.00 0.00 0.00 96 1015.5
20260507110940 50 10 0.0 0.0 0.00 0.00 0.00 96 1015.2
20260507110320 50 10 0.0 0.0 0.00 0.00 0.00 96 1015.2
20260507105717 50 10 0.0 0.0 0.00 0.00 0.00 96 1015.2
20260507105143 50 10 0.0 0.0 0.00 0.00 0.00 96 1015.2
20260507104546 50 10 0.0 0.0 0.00 0.00 0.00 95 1015.2
20260507103320 50 10 0.0 0.0 0.00 0.00 0.00 96 1014.9
20260507102729 50 10 0.0 0.0 0.00 0.00 0.00 96 1014.9